• In Österreich
  • Länderverzeichnis
  • Für 7 Tage
  • Wassertemperatur
  • Satellitenkarten
  • Wetterkarte
  • News
  • Widgets
  • user-avatar
    Anmelden

    Stündliche Wetter Kuiaba

    Heute, 19 September, Mittwoch

    Zeit Temperatur Niederschläge Wind Luftdruck Luftfeuchtigkeit
    00:00 +30°C° 0.1 mm 1 m/S 738 mmHg 53%
    01:00 +30°C° 0.1 mm 2 m/S 738 mmHg 54%
    02:00 +30°C° 0.1 mm 2 m/S 738 mmHg 56%
    03:00 +29°C° 0 mm 2 m/S 738 mmHg 57%
    04:00 +29°C° 0 mm 2 m/S 738 mmHg 58%
    05:00 +29°C° 0 mm 2 m/S 738 mmHg 60%
    06:00 +30°C° 0 mm 2 m/S 738 mmHg 55%
    07:00 +32°C° 0 mm 2 m/S 739 mmHg 50%
    08:00 +35°C° 0 mm 3 m/S 739 mmHg 45%
    09:00 +37°C° 0 mm 3 m/S 739 mmHg 39%
    10:00 +39°C° 0 mm 3 m/S 739 mmHg 34%
    11:00 +40°C° 0 mm 3 m/S 739 mmHg 29%
    12:00 +42°C° 0 mm 3 m/S 739 mmHg 27%
    13:00 +42°C° 0 mm 3 m/S 738 mmHg 26%
    14:00 +43°C° 0 mm 3 m/S 737 mmHg 25%
    15:00 +42°C° 0 mm 3 m/S 737 mmHg 26%
    16:00 +40°C° 0 mm 3 m/S 737 mmHg 27%
    17:00 +39°C° 0 mm 2 m/S 737 mmHg 29%
    18:00 +38°C° 0.1 mm 2 m/S 737 mmHg 31%
    19:00 +37°C° 0.1 mm 2 m/S 738 mmHg 34%
    20:00 +35°C° 0.1 mm 2 m/S 738 mmHg 37%
    21:00 +34°C° 0.9 mm 2 m/S 739 mmHg 43%
    22:00 +32°C° 0.9 mm 1 m/S 739 mmHg 48%
    23:00 +31°C° 0.9 mm 1 m/S 739 mmHg 53%

    Morgen, 20 September, Donnerstag

    Zeit Temperatur Niederschläge Wind Luftdruck Luftfeuchtigkeit
    00:00 +31°C° 0 mm 1 m/S 738 mmHg 54%
    01:00 +30°C° 0 mm 1 m/S 738 mmHg 55%
    02:00 +30°C° 0 mm 1 m/S 737 mmHg 56%
    03:00 +30°C° 0 mm 1 m/S 737 mmHg 57%
    04:00 +29°C° 0 mm 1 m/S 738 mmHg 57%
    05:00 +29°C° 0 mm 1 m/S 738 mmHg 58%
    06:00 +31°C° 0.1 mm 1 m/S 739 mmHg 53%
    07:00 +33°C° 0.1 mm 1 m/S 739 mmHg 49%
    08:00 +34°C° 0.1 mm 1 m/S 740 mmHg 44%
    09:00 +37°C° 0 mm 2 m/S 740 mmHg 39%
    10:00 +39°C° 0 mm 2 m/S 740 mmHg 34%
    11:00 +41°C° 0 mm 2 m/S 740 mmHg 29%
    12:00 +41°C° 0 mm 2 m/S 739 mmHg 29%
    13:00 +40°C° 0 mm 2 m/S 739 mmHg 29%
    14:00 +40°C° 0 mm 2 m/S 738 mmHg 28%
    15:00 +39°C° 0 mm 3 m/S 738 mmHg 33%
    16:00 +38°C° 0 mm 3 m/S 738 mmHg 37%
    17:00 +36°C° 0 mm 3 m/S 737 mmHg 41%
    18:00 +35°C° 0.3 mm 3 m/S 738 mmHg 45%
    19:00 +34°C° 0.3 mm 3 m/S 738 mmHg 49%
    20:00 +32°C° 0.3 mm 2 m/S 739 mmHg 53%
    21:00 +31°C° 0.2 mm 2 m/S 739 mmHg 56%
    22:00 +31°C° 0.2 mm 1 m/S 740 mmHg 58%
    23:00 +30°C° 0.2 mm 1 m/S 740 mmHg 61%

    übermorgen, 21 September, Freitag

    Zeit Temperatur Niederschläge Wind Luftdruck Luftfeuchtigkeit
    00:00 +30°C° 0.1 mm 1 m/S 739 mmHg 62%
    01:00 +30°C° 0.1 mm 1 m/S 739 mmHg 63%
    02:00 +29°C° 0.1 mm 1 m/S 738 mmHg 65%
    03:00 +29°C° 0.1 mm 1 m/S 738 mmHg 65%
    04:00 +29°C° 0.1 mm 1 m/S 738 mmHg 66%
    05:00 +28°C° 0.1 mm 1 m/S 739 mmHg 67%
    06:00 +30°C° 0 mm 1 m/S 739 mmHg 62%
    07:00 +31°C° 0 mm 1 m/S 740 mmHg 57%
    08:00 +33°C° 0 mm 1 m/S 740 mmHg 52%
    09:00 +35°C° 0 mm 1 m/S 740 mmHg 45%
    10:00 +39°C° 0 mm 1 m/S 740 mmHg 38%
    11:00 +41°C° 0 mm 1 m/S 740 mmHg 30%
    12:00 +41°C° 0 mm 1 m/S 739 mmHg 30%
    13:00 +40°C° 0 mm 1 m/S 738 mmHg 30%
    14:00 +37°C° 0 mm 0 m/S 737 mmHg 30%
    15:00 +36°C° 0 mm 0 m/S 737 mmHg 32%
    16:00 +39°C° 0 mm 1 m/S 737 mmHg 33%
    17:00 +37°C° 0 mm 1 m/S 737 mmHg 34%
    18:00 +36°C° 0.5 mm 1 m/S 737 mmHg 40%
    19:00 +34°C° 0.5 mm 1 m/S 738 mmHg 46%
    20:00 +32°C° 0.5 mm 1 m/S 738 mmHg 52%
    21:00 +32°C° 0.2 mm 1 m/S 739 mmHg 54%
    22:00 +31°C° 0.2 mm 1 m/S 739 mmHg 56%
    23:00 +31°C° 0.2 mm 1 m/S 739 mmHg 58%

    22 September, Samstag

    Zeit Temperatur Niederschläge Wind Luftdruck Luftfeuchtigkeit
    00:00 +30°C° 0.1 mm 1 m/S 739 mmHg 59%
    01:00 +30°C° 0.1 mm 1 m/S 738 mmHg 61%
    02:00 +30°C° 0.1 mm 1 m/S 738 mmHg 62%
    03:00 +29°C° 0 mm 1 m/S 738 mmHg 63%
    04:00 +29°C° 0 mm 1 m/S 738 mmHg 64%
    05:00 +29°C° 0 mm 1 m/S 738 mmHg 65%
    06:00 +30°C° 0 mm 1 m/S 739 mmHg 59%
    07:00 +32°C° 0 mm 1 m/S 739 mmHg 53%
    08:00 +35°C° 0 mm 2 m/S 740 mmHg 47%
    09:00 +37°C° 0 mm 2 m/S 740 mmHg 40%
    10:00 +40°C° 0 mm 1 m/S 739 mmHg 34%
    11:00 +42°C° 0 mm 1 m/S 739 mmHg 27%
    12:00 +42°C° 0 mm 1 m/S 738 mmHg 26%
    13:00 +42°C° 0 mm 1 m/S 737 mmHg 26%
    14:00 +42°C° 0 mm 1 m/S 736 mmHg 25%
    15:00 +41°C° 0 mm 1 m/S 736 mmHg 27%
    16:00 +40°C° 0 mm 1 m/S 736 mmHg 29%
    17:00 +39°C° 0 mm 1 m/S 736 mmHg 31%
    18:00 +37°C° 0.3 mm 2 m/S 736 mmHg 36%
    19:00 +36°C° 0.3 mm 2 m/S 737 mmHg 41%
    20:00 +34°C° 0.3 mm 3 m/S 737 mmHg 46%
    21:00 +33°C° 0.2 mm 3 m/S 737 mmHg 48%
    22:00 +33°C° 0.2 mm 3 m/S 737 mmHg 51%
    23:00 +31°C° 0.2 mm 3 m/S 737 mmHg 53%

    23 September, Sonntag

    Zeit Temperatur Niederschläge Wind Luftdruck Luftfeuchtigkeit
    00:00 +31°C° 0 mm 2 m/S 737 mmHg 52%
    01:00 +32°C° 0 mm 2 m/S 737 mmHg 51%
    02:00 +32°C° 0 mm 1 m/S 737 mmHg 50%
    03:00 +31°C° 0 mm 2 m/S 737 mmHg 52%
    04:00 +30°C° 0 mm 2 m/S 737 mmHg 54%
    05:00 +30°C° 0 mm 2 m/S 737 mmHg 56%
    06:00 +31°C° 0 mm 2 m/S 738 mmHg 51%
    07:00 +34°C° 0 mm 2 m/S 739 mmHg 46%
    08:00 +36°C° 0 mm 2 m/S 739 mmHg 42%
    09:00 +37°C° 0 mm 2 m/S 739 mmHg 37%
    10:00 +39°C° 0 mm 2 m/S 739 mmHg 33%
    11:00 +41°C° 0 mm 2 m/S 738 mmHg 28%
    12:00 +41°C° 0 mm 2 m/S 738 mmHg 26%
    13:00 +42°C° 0 mm 2 m/S 737 mmHg 25%
    14:00 +43°C° 0 mm 2 m/S 736 mmHg 23%
    15:00 +42°C° 0 mm 2 m/S 736 mmHg 25%
    16:00 +41°C° 0 mm 2 m/S 736 mmHg 26%
    17:00 +40°C° 0 mm 1 m/S 736 mmHg 28%
    18:00 +38°C° 0 mm 2 m/S 737 mmHg 30%
    19:00 +37°C° 0 mm 2 m/S 737 mmHg 33%
    20:00 +36°C° 0 mm 2 m/S 738 mmHg 36%
    21:00 +35°C° 0 mm 2 m/S 738 mmHg 38%
    22:00 +33°C° 0 mm 1 m/S 738 mmHg 40%
    23:00 +32°C° 0 mm 1 m/S 738 mmHg 42%

    24 September, Montag

    Zeit Temperatur Niederschläge Wind Luftdruck Luftfeuchtigkeit
    00:00 +32°C° 0 mm 1 m/S 737 mmHg 44%
    01:00 +32°C° 0 mm 1 m/S 737 mmHg 45%
    02:00 +31°C° 0 mm 1 m/S 737 mmHg 46%
    03:00 +31°C° 0.1 mm 1 m/S 737 mmHg 48%
    04:00 +30°C° 0.1 mm 1 m/S 737 mmHg 50%
    05:00 +30°C° 0.1 mm 2 m/S 738 mmHg 51%
    06:00 +32°C° 0.1 mm 1 m/S 738 mmHg 47%
    07:00 +34°C° 0.1 mm 1 m/S 739 mmHg 43%
    08:00 +35°C° 0.1 mm 1 m/S 739 mmHg 39%
    09:00 +39°C° 0 mm 1 m/S 739 mmHg 34%
    10:00 +41°C° 0 mm 1 m/S 739 mmHg 29%
    11:00 +44°C° 0 mm 1 m/S 739 mmHg 24%
    12:00 +43°C° 0 mm 1 m/S 738 mmHg 24%
    13:00 +43°C° 0 mm 1 m/S 737 mmHg 24%
    14:00 +42°C° 0 mm 1 m/S 737 mmHg 25%
    15:00 +41°C° 0.1 mm 2 m/S 737 mmHg 28%
    16:00 +39°C° 0.1 mm 3 m/S 737 mmHg 32%
    17:00 +37°C° 0.1 mm 3 m/S 737 mmHg 36%
    18:00 +36°C° 0.3 mm 3 m/S 737 mmHg 41%
    19:00 +34°C° 0.3 mm 3 m/S 737 mmHg 45%
    20:00 +33°C° 0.3 mm 3 m/S 738 mmHg 50%
    21:00 +31°C° 0 mm 2 m/S 738 mmHg 51%
    22:00 +31°C° 0 mm 2 m/S 738 mmHg 53%
    23:00 +31°C° 0 mm 2 m/S 738 mmHg 54%
    Mehr zeigen